Location: Kapuskasing
(49.3803°N, 82.4001°W)
Time: 14:20:33
(UTC-05:00)

RS-44 - Pass Details

Date: 17 December 2025
Orbit: 1174 x 1511 km, 82.5° (Epoch: 21 January)

Event Time Altitude Azimuth Distance (km) Brightness Sun altitude
Exits shadow 02:56:35 14° 2° (N) 3,283 ? -50.7°
Drops below altitude 10° 02:57:33 10° 5° (N) 3,585 ? -50.6°
Sets 03:00:29 0° 10° (N) 4,529 ? -50.1°
